Hourly Data Report for December 09, 2006

TORONTO CITY
ONTARIO

43°40'00.000" N
79°24'00.000" W
112.50 m
6158355
71508
XTO

Download Data

Hourly Data (December 2006)
Hourly Data Report for December 9, 2006
TIME
LST
Temp Definition
°C
Dew Point Definition
°C
Rel Hum Definition
%
Precip. Amount Definition
mm

Wind Dir Definition
10's deg

Wind Spd Definition
km/h
Visibility Definition
km
Stn Press Definition
kPa
Hmdx Definition


Wind Chill Definition


Weather Definition


00:00 -2.5 -11.2 51   LegendMM LegendMM   100.85     LegendNANA
01:00 -2.4 -11.2 51   LegendMM LegendMM   100.84     LegendNANA
02:00 -2.5 -10.9 52   LegendMM LegendMM   100.90     LegendNANA
03:00 -2.4 -10.2 55   LegendMM LegendMM   100.94     LegendNANA
04:00 -2.6 -9.9 57   LegendMM LegendMM   100.89     LegendNANA
05:00 -2.6 -9.9 57   LegendMM LegendMM   100.92     LegendNANA
06:00 -2.7 -9.7 59   LegendMM LegendMM   100.96     LegendNANA
07:00 -2.3 -9.6 57   LegendMM LegendMM   101.03     LegendNANA
08:00 -2.5 -9.5 59   LegendMM LegendMM   101.02     LegendNANA
09:00 -2.6 -9.4 59   LegendMM LegendMM   101.05     LegendNANA
10:00 -1.5 -8.8 57   LegendMM LegendMM   101.04     LegendNANA
11:00 0.1 -8.5 52   LegendMM LegendMM   100.96     LegendNANA
12:00 1.4 -8.3 48   LegendMM LegendMM   100.85     LegendNANA
13:00 3.1 -7.3 46   LegendMM LegendMM   100.76     LegendNANA
14:00 3.6 -5.1 53   LegendMM LegendMM   100.70     LegendNANA
15:00 3.9 -4.5 54   LegendMM LegendMM   100.69     LegendNANA
16:00 3.2 -4.6 57   LegendMM LegendMM   100.64     LegendNANA
17:00 3.0 -5.2 55   LegendMM LegendMM   100.65     LegendNANA
18:00 2.6 -4.2 61   LegendMM LegendMM   100.67     LegendNANA
19:00 2.9 -4.2 60   LegendMM LegendMM   100.68     LegendNANA
20:00 3.3 -4.6 56   LegendMM LegendMM   100.63     LegendNANA
21:00 3.8 -4.3 55   LegendMM LegendMM   100.55     LegendNANA
22:00 3.9 -4.5 54   LegendMM LegendMM   100.54     LegendNANA
23:00 4.0 -4.1 55   LegendMM LegendMM   100.55     LegendNANA

Notes on Data Quality.

Legend

  • E = Estimated
  • M = Missing
  • NA = Not Available*
  • [empty] = Indicates an unobserved value
Date modified: